F5ZQC-13 Weather Reports


Display with metric or nautical units.
time (UTC)temp
F
wind
direction
speed
MPH
gust
MPH
rain 1hr
in
rain 24hr
in
rain mn
in
humidity
%
barometer
mb
20260507113526 70 292 8.0 10.0 0.00 0.00 0.00 31 1010.8
20260507113328 70 315 6.0 10.0 0.00 0.00 0.00 31 1010.8
20260507113122 70 315 6.0 11.0 0.00 0.00 0.00 31 1010.9
20260507112919 70 292 5.0 11.0 0.00 0.00 0.00 31 1010.9
20260507112717 70 315 9.0 11.0 0.00 0.00 0.00 31 1011.0
20260507112313 70 315 10.0 10.0 0.00 0.00 0.00 32 1010.9
20260507111705 70 270 6.0 10.0 0.00 0.00 0.00 31 1011.0
20260507111301 70 315 6.0 11.0 0.00 0.00 0.00 31 1011.1
20260507110654 69 315 8.0 12.0 0.00 0.00 0.00 32 1011.2
20260507110250 69 315 9.0 9.0 0.00 0.00 0.00 32 1011.2
20260507105850 69 315 3.0 7.0 0.00 0.00 0.00 33 1011.2
20260507105643 69 270 6.0 7.0 0.00 0.00 0.00 32 1011.3
20260507105239 69 315 4.0 9.0 0.00 0.00 0.00 32 1011.3
20260507105037 69 315 5.0 9.0 0.00 0.00 0.00 32 1011.4
20260507104429 69 315 5.0 9.0 0.00 0.00 0.00 31 1011.4
20260507104108 69 315 6.0 9.0 0.00 0.00 0.00 30 1011.4
20260507104025 69 315 6.0 9.0 0.00 0.00 0.00 30 1011.4
20260507103826 69 292 9.0 9.0 0.00 0.00 0.00 32 1011.3
20260507103418 69 315 3.0 10.0 0.00 0.00 0.00 32 1011.2
20260507102811 68 270 6.0 11.0 0.00 0.00 0.00 31 1011.2
20260507102413 68 292 7.0 8.0 0.00 0.00 0.00 32 1011.3
20260507102205 68 270 7.0 8.0 0.00 0.00 0.00 32 1011.4
20260507102002 68 292 6.0 10.0 0.00 0.00 0.00 32 1011.3
20260507101759 68 270 5.0 10.0 0.00 0.00 0.00 31 1011.3
20260507101558 68 292 6.0 9.0 0.00 0.00 0.00 32 1011.4
20260507101355 68 270 6.0 9.0 0.00 0.00 0.00 32 1011.5
20260507101153 68 270 5.0 7.0 0.00 0.00 0.00 32 1011.3
20260507100344 68 292 6.0 10.0 0.00 0.00 0.00 31 1011.4
20260507095535 69 270 6.0 11.0 0.00 0.00 0.00 31 1011.4
20260507095334 69 315 9.0 11.0 0.00 0.00 0.00 31 1011.4
20260507094928 69 315 6.0 9.0 0.00 0.00 0.00 32 1011.4
20260507094523 69 315 8.0 9.0 0.00 0.00 0.00 31 1011.4
20260507094321 69 292 9.0 10.0 0.00 0.00 0.00 31 1011.5
20260507093717 69 315 6.0 9.0 0.00 0.00 0.00 31 1011.5
20260507093512 69 315 7.0 9.0 0.00 0.00 0.00 31 1011.5
20260507092702 70 292 9.0 9.0 0.00 0.00 0.00 31 1011.5
20260507092258 69 270 5.0 9.0 0.00 0.00 0.00 32 1011.4
20260507092059 70 270 7.0 9.0 0.00 0.00 0.00 32 1011.3
20260507091854 70 303 7.0 8.0 0.00 0.00 0.00 32 1011.4
20260507091652 70 315 4.0 8.0 0.00 0.00 0.00 32 1011.4
20260507091449 70 315 4.0 8.0 0.00 0.00 0.00 32 1011.3
20260507091247 70 292 6.0 6.0 0.00 0.00 0.00 33 1011.4
20260507091048 69 270 5.0 9.0 0.00 0.00 0.00 32 1011.4
20260507090640 69 315 6.0 8.0 0.00 0.00 0.00 32 1011.3
20260507090236 69 303 2.0 7.0 0.00 0.00 0.00 32 1011.3
20260507085831 69 315 6.0 7.0 0.00 0.00 0.00 33 1011.4
20260507085629 69 292 5.0 7.0 0.00 0.00 0.00 33 1011.4
20260507084820 68 315 4.0 7.0 0.00 0.00 0.00 34 1011.4
20260507084622 68 315 4.0 7.0 0.00 0.00 0.00 34 1011.4
20260507084415 68 326 4.0 7.0 0.00 0.00 0.00 34 1011.5
20260507084317 68 0 2.0 7.0 0.00 0.00 0.00 34 1011.4
20260507084214 68 0 2.0 7.0 0.00 0.00 0.00 34 1011.4
20260507083808 67 0 2.0 6.0 0.00 0.00 0.00 34 1011.5
20260507083606 67 0 4.0 6.0 0.00 0.00 0.00 35 1011.5
20260507083408 67 337 2.0 9.0 0.00 0.00 0.00 35 1011.5
20260507082828 66 0 0.0 5.0 0.00 0.00 0.00 35 1011.5
20260507082624 66 337 5.0 5.0 0.00 0.00 0.00 35 1011.4
20260507082422 66 326 4.0 7.0 0.00 0.00 0.00 35 1011.5
20260507082220 66 315 3.0 7.0 0.00 0.00 0.00 35 1011.5
20260507082018 66 337 2.0 4.0 0.00 0.00 0.00 36 1011.4
20260507081211 66 315 5.0 7.0 0.00 0.00 0.00 35 1011.5
20260507075433 67 337 4.0 4.0 0.00 0.00 0.00 33 1011.4
20260507075348 67 337 4.0 4.0 0.00 0.00 0.00 33 1011.4
20260507075146 68 0 3.0 6.0 0.00 0.00 0.00 33 1011.5
20260507074742 68 326 4.0 7.0 0.00 0.00 0.00 33 1011.4
20260507074337 69 337 6.0 6.0 0.00 0.00 0.00 32 1011.4
20260507073930 70 315 3.0 5.0 0.00 0.00 0.00 35 1011.5
20260507073729 70 315 4.0 6.0 0.00 0.00 0.00 35 1011.5
20260507073525 69 270 4.0 6.0 0.00 0.00 0.00 35 1011.4
20260507073323 69 292 4.0 5.0 0.00 0.00 0.00 35 1011.3
20260507072904 69 270 6.0 6.0 0.00 0.00 0.00 34 1011.4
20260507072716 69 270 6.0 6.0 0.00 0.00 0.00 34 1011.4
20260507072513 69 292 2.0 6.0 0.00 0.00 0.00 34 1011.3
20260507072311 69 315 3.0 6.0 0.00 0.00 0.00 34 1011.3
20260507065624 68 315 3.0 5.0 0.00 0.00 0.00 40 1011.4
20260507065421 68 303 4.0 5.0 0.00 0.00 0.00 41 1011.4
20260507065219 67 315 4.0 127.0 0.00 0.00 0.00 41 1011.4
20260507065017 67 315 4.0 127.0 0.00 0.00 0.00 42 1011.3
20260507064512 66 315 3.0 126.0 0.00 0.00 0.00 43 1011.3
20260507064310 66 315 2.0 126.0 0.00 0.00 0.00 42 1011.3
20260507063720 65 247 0.0 124.0 0.00 0.00 0.00 45 1011.4
20260507063518 64 45 0.0 124.0 0.00 0.00 0.00 45 1011.1
20260507063319 64 303 1.0 1.0 0.00 0.00 0.00 46 1011.4
20260507063117 63 337 1.0 1.0 0.00 0.00 0.00 46 1011.1
20260507062713 63 337 0.0 1.0 0.00 0.00 0.00 46 1011.2
20260507062510 62 337 0.0 0.0 0.00 0.00 0.00 49 1011.4
20260507062309 62 337 1.0 2.0 0.00 0.00 0.00 47 1011.4
20260507061323 60 0 1.0 1.0 0.00 0.00 0.00 50 1011.2
20260507060716 59 315 0.0 125.0 0.00 0.00 0.00 49 1011.1
20260507060613 58 315 125.0 125.0 0.00 0.00 0.00 50 1011.1
20260507060219 58 315 1.0 2.0 0.00 0.00 0.00 51 1011.4
20260507060017 57 292 1.0 2.0 0.00 0.00 0.00 51 1011.3
20260507055337 56 292 1.0 2.0 0.00 0.00 0.00 53 1011.3
20260507055136 55 315 2.0 2.0 0.00 0.00 0.00 53 1011.4
20260507054933 55 292 0.0 1.0 0.00 0.00 0.00 53 1011.2
20260507054326 54 337 0.0 0.0 0.00 0.00 0.00 53 1011.3
20260507053921 53 337 0.0 0.0 0.00 0.00 0.00 54 1011.3
20260507053728 53 225 0.0 1.0 0.00 0.00 0.00 54 1011.2
20260507053719 53 33 0.0 1.0 0.00 0.00 0.00 53 1011.4
20260507053517 53 225 0.0 1.0 0.00 0.00 0.00 54 1011.2
20260507053314 52 45 1.0 2.0 0.00 0.00 0.00 54 1011.3
20260507052910 52 0 1.0 2.0 0.00 0.00 0.00 54 1011.4
20260507052707 52 0 2.0 2.0 0.00 0.00 0.00 54 1011.2
20260507052505 51 292 1.0 2.0 0.00 0.00 0.00 55 1011.3
20260507052306 51 0 1.0 2.0 0.00 0.00 0.00 54 1011.2
20260507051859 51 315 1.0 2.0 0.00 0.00 0.00 55 1010.6
20260507051252 51 337 2.0 2.0 0.00 0.00 0.00 55 1011.0
20260507051050 50 0 2.0 2.0 0.00 0.00 0.00 55 1011.1
20260507050333 50 315 3.0 3.0 0.00 0.00 0.00 56 1011.1
20260507050240 50 315 3.0 3.0 0.00 0.00 0.00 56 1011.1
20260507045911 50 348 2.0 2.0 0.00 0.00 0.00 55 1010.9
20260507045836 50 348 2.0 2.0 0.00 0.00 0.00 55 1010.9
20260507045716 50 348 3.0 4.0 0.00 0.00 0.00 55 1010.9
20260507045312 50 337 3.0 3.0 0.00 0.00 0.00 56 1011.0
20260507044756 51 292 2.0 3.0 0.00 0.00 0.00 55 1011.1
20260507044150 51 337 3.0 3.0 0.00 0.00 0.00 55 1011.1
20260507043745 51 292 3.0 3.0 0.00 0.00 0.00 54 1010.9
20260507042733 51 337 2.0 2.0 0.00 0.00 0.00 54 1010.8
20260507042328 51 292 2.0 3.0 0.00 0.00 0.00 59 1010.9
20260507041926 51 281 2.0 2.0 0.00 0.00 0.00 55 1011.0
20260507041722 51 281 1.0 2.0 0.00 0.00 0.00 55 1011.0
20260507041318 51 292 1.0 1.0 0.00 0.00 0.00 55 1011.0
20260507040914 51 292 0.0 1.0 0.00 0.00 0.00 55 1010.9
20260507040712 51 292 0.0 1.0 0.00 0.00 0.00 56 1011.0
20260507035900 51 337 1.0 2.0 0.00 0.00 0.00 55 1010.9
20260507035454 51 337 2.0 2.0 0.00 0.00 0.00 55 1011.0
20260507034521 52 348 1.0 2.0 0.00 0.00 0.00 56 1011.1
20260507034443 52 348 1.0 2.0 0.00 0.00 0.00 56 1011.1
20260507033633 52 337 0.0 0.0 0.00 0.00 0.00 54 1011.1
20260507033229 52 270 0.0 0.0 0.00 0.00 0.00 54 1011.1
20260507032825 52 270 0.0 1.0 0.00 0.00 0.00 53 1011.2
20260507032622 52 270 1.0 1.0 0.00 0.00 0.00 54 1011.2
20260507032421 52 270 1.0 1.0 0.00 0.00 0.00 54 1010.9
20260507032218 52 270 1.0 1.0 0.00 0.00 0.00 53 1011.2
20260507032025 52 292 1.0 2.0 0.00 0.00 0.00 54 1011.2
20260507032023 52 270 1.0 1.0 0.00 0.00 0.00 54 1011.0
20260507031813 52 292 1.0 2.0 0.00 0.00 0.00 54 1011.2
20260507031610 52 270 0.0 2.0 0.00 0.00 0.00 54 1011.2
20260507031409 52 270 1.0 2.0 0.00 0.00 0.00 53 1011.2
20260507031004 52 270 2.0 2.0 0.00 0.00 0.00 53 1011.2
20260507030803 52 270 0.0 1.0 0.00 0.00 0.00 53 1011.1
20260507030602 52 270 1.0 1.0 0.00 0.00 0.00 53 1011.2
20260507030158 52 270 1.0 2.0 0.00 0.00 0.00 53 1011.2
20260507025953 52 270 1.0 3.0 0.00 0.00 0.00 53 1011.1
20260507025753 52 270 2.0 3.0 0.00 0.00 0.00 53 1011.2
20260507025144 52 270 1.0 1.0 0.00 0.00 0.00 54 1011.5
20260507024739 52 270 1.0 1.0 0.00 0.00 0.00 53 1011.3
20260507024335 52 270 1.0 2.0 0.00 0.00 0.00 54 1011.1
20260507024135 52 270 0.0 3.0 0.00 0.00 0.00 52 1011.5
20260507023728 52 270 2.0 4.0 0.00 0.00 0.00 53 1010.9
20260507023323 52 315 3.0 3.0 0.00 0.00 0.00 52 1011.3
20260507022919 52 315 3.0 3.0 0.00 0.00 0.00 52 1011.1
20260507022719 52 315 3.0 3.0 0.00 0.00 0.00 52 1011.2
20260507022312 53 315 1.0 2.0 0.00 0.00 0.00 52 1011.3
20260507021508 53 292 2.0 2.0 0.00 0.00 0.00 53 1011.4
20260507021300 53 292 2.0 2.0 0.00 0.00 0.00 53 1011.1
20260507020856 53 281 2.0 2.0 0.00 0.00 0.00 52 1011.1
20260507020654 53 315 2.0 3.0 0.00 0.00 0.00 53 1011.3
20260507020249 53 292 2.0 3.0 0.00 0.00 0.00 53 1011.3
20260507015845 53 315 3.0 5.0 0.00 0.00 0.00 53 1011.4
20260507015643 53 292 3.0 5.0 0.00 0.00 0.00 53 1011.3
20260507015444 53 315 3.0 4.0 0.00 0.00 0.00 54 1011.3
20260507015242 53 292 3.0 4.0 0.00 0.00 0.00 53 1011.4
20260507015036 53 326 3.0 4.0 0.00 0.00 0.00 53 1011.4
20260507014834 53 281 2.0 3.0 0.00 0.00 0.00 53 1011.5
20260507014637 53 292 3.0 4.0 0.00 0.00 0.00 52 1011.5
20260507014226 53 326 3.0 5.0 0.00 0.00 0.00 52 1011.3
20260507013822 53 281 4.0 5.0 0.00 0.00 0.00 53 1011.5
20260507013621 53 303 3.0 4.0 0.00 0.00 0.00 52 1011.2
20260507013417 53 326 2.0 4.0 0.00 0.00 0.00 52 1011.5
20260507013216 53 315 3.0 4.0 0.00 0.00 0.00 53 1011.5
20260507012811 53 315 2.0 3.0 0.00 0.00 0.00 53 1011.5
20260507012609 53 303 2.0 3.0 0.00 0.00 0.00 52 1011.5
20260507012406 53 303 1.0 3.0 0.00 0.00 0.00 53 1011.5
20260507011800 54 303 2.0 4.0 0.00 0.00 0.00 52 1011.6
20260507010749 54 315 3.0 4.0 0.00 0.00 0.00 52 1011.5
20260507010146 54 315 3.0 4.0 0.00 0.00 0.00 52 1011.5
20260507005737 54 315 3.0 4.0 0.00 0.00 0.00 52 1011.6
20260507005336 54 315 3.0 4.0 0.00 0.00 0.00 53 1011.6
20260507005008 54 303 1.0 4.0 0.00 0.00 0.00 52 1011.7
20260507004928 54 303 1.0 4.0 0.00 0.00 0.00 52 1011.7
20260507004523 54 315 4.0 4.0 0.00 0.00 0.00 52 1011.7
20260507004322 54 315 3.0 4.0 0.00 0.00 0.00 52 1011.9
20260507003714 54 303 2.0 4.0 0.00 0.00 0.00 52 1012.0
20260507003309 54 315 4.0 4.0 0.00 0.00 0.00 52 1011.7
20260507001651 55 315 2.0 3.0 0.00 0.00 0.00 51 1012.1
20260507001247 55 292 2.0 4.0 0.00 0.00 0.00 51 1012.1
20260507001048 55 315 4.0 4.0 0.00 0.00 0.00 51 1011.9
20260507000844 55 315 3.0 3.0 0.00 0.00 0.00 52 1012.2
20260507000641 55 315 3.0 3.0 0.00 0.00 0.00 52 1012.0
20260507000400 55 315 1.0 3.0 0.00 0.00 0.02 53 1012.1
20260506235754 55 315 2.0 4.0 0.00 0.00 0.02 52 1012.1
20260506235350 55 315 2.0 4.0 0.00 0.00 0.02 51 1012.2
20260506235147 55 303 3.0 4.0 0.00 0.00 0.02 51 1012.2
20260506234739 55 292 2.0 4.0 0.00 0.00 0.02 51 1012.1
20260506234609 55 315 4.0 4.0 0.00 0.00 0.02 50 1012.1
20260506234538 55 315 4.0 4.0 0.00 0.00 0.02 50 1012.1
20260506234132 55 270 3.0 5.0 0.00 0.00 0.02 52 1012.1
20260506234002 55 315 4.0 5.0 0.00 0.00 0.02 51 1012.1
20260506233931 55 315 4.0 5.0 0.00 0.00 0.02 51 1012.1
20260506233728 55 270 1.0 6.0 0.00 0.00 0.02 50 1012.1
20260506233323 55 270 4.0 5.0 0.00 0.00 0.02 51 1012.1
20260506233123 55 292 1.0 5.0 0.00 0.00 0.02 51 1012.2
20260506232717 55 315 3.0 5.0 0.00 0.00 0.02 51 1012.2
20260506232312 55 315 3.0 5.0 0.00 0.00 0.02 51 1012.2
20260506231908 55 315 2.0 5.0 0.00 0.00 0.02 51 1011.9
20260506231705 55 292 3.0 5.0 0.00 0.00 0.02 51 1012.2
20260506230856 56 315 4.0 6.0 0.00 0.00 0.02 50 1012.3
20260506230654 56 315 5.0 6.0 0.00 0.00 0.02 50 1012.3
20260506230452 56 326 3.0 8.0 0.00 0.00 0.02 50 1012.2
20260506230251 56 292 7.0 9.0 0.00 0.00 0.02 50 1012.2
20260506225643 56 326 6.0 9.0 0.00 0.00 0.02 50 1012.2
20260506225441 56 292 8.0 8.0 0.00 0.00 0.02 50 1012.2
20260506225237 56 292 5.0 8.0 0.00 0.00 0.02 50 1012.2
20260506224429 56 337 5.0 6.0 0.00 0.00 0.02 51 1012.3
20260506224226 56 281 1.0 3.0 0.00 0.00 0.02 50 1012.3
20260506224024 56 315 1.0 4.0 0.00 0.00 0.02 50 1012.1
20260506223826 56 337 2.0 4.0 0.00 0.00 0.02 50 1012.2
20260506223620 56 0 3.0 3.0 0.00 0.00 0.02 50 1012.3
20260506223215 56 337 1.0 2.0 0.00 0.00 0.02 51 1012.4
20260506223016 56 303 1.0 3.0 0.00 0.00 0.02 52 1012.3
20260506222811 56 270 0.0 4.0 0.00 0.00 0.02 50 1012.3
20260506222609 56 315 2.0 4.0 0.00 0.00 0.02 50 1012.3
20260506222406 56 315 3.0 3.0 0.00 0.00 0.02 50 1012.3
20260506221839 56 270 7.0 7.0 0.00 0.00 0.02 50 1012.3
20260506221759 56 270 7.0 7.0 0.00 0.00 0.02 50 1012.3
20260506221244 56 292 0.0 5.0 0.00 0.00 0.02 50 1012.3
20260506221154 56 292 0.0 5.0 0.00 0.00 0.02 50 1012.3
20260506220950 56 292 3.0 5.0 0.00 0.00 0.02 50 1012.3
20260506220344 56 315 2.0 4.0 0.00 0.00 0.02 49 1012.2
20260506215738 56 0 2.0 7.0 0.00 0.00 0.02 48 1012.2
20260506215131 56 337 0.0 3.0 0.00 0.00 0.02 49 1012.2
20260506214523 56 303 0.0 2.0 0.00 0.00 0.02 48 1012.2
20260506214321 56 292 1.0 3.0 0.00 0.00 0.02 48 1012.2
20260506214118 56 303 2.0 6.0 0.00 0.00 0.02 49 1012.2
20260506213916 56 270 1.0 6.0 0.00 0.00 0.02 48 1012.1
20260506213714 56 315 1.0 3.0 0.00 0.00 0.02 48 1012.3
20260506213317 56 292 0.0 1.0 0.00 0.00 0.02 49 1012.2
20260506211449 56 270 1.0 3.0 0.00 0.00 0.02 48 1012.1
20260506211247 56 292 1.0 3.0 0.00 0.00 0.02 48 1012.2
20260506211044 56 292 2.0 3.0 0.00 0.00 0.02 48 1012.3
20260506210236 56 326 1.0 3.0 0.00 0.00 0.02 48 1012.2
20260506210033 56 315 0.0 1.0 0.00 0.00 0.02 48 1012.2
20260506205831 56 0 0.0 3.0 0.00 0.00 0.02 47 1012.2
20260506205021 56 292 1.0 4.0 0.00 0.00 0.02 46 1012.0
20260506204856 56 303 2.0 4.0 0.00 0.00 0.02 46 1012.2
20260506204819 56 303 2.0 4.0 0.00 0.00 0.02 46 1012.2
20260506204617 56 270 2.0 4.0 0.00 0.00 0.02 45 1012.0
20260506204214 56 315 1.0 5.0 0.00 0.00 0.02 45 1012.1
20260506203808 57 270 2.0 4.0 0.00 0.00 0.02 45 1012.1
20260506202150 57 315 4.0 6.0 0.00 0.00 0.02 45 1011.9
20260506201947 57 315 4.0 6.0 0.00 0.00 0.02 45 1011.8
20260506201139 58 315 2.0 5.0 0.00 0.00 0.02 45 1011.9
20260506200330 58 0 1.0 3.0 0.00 0.00 0.02 45 1011.7
20260506195840 58 337 1.0 5.0 0.00 0.00 0.02 44 1011.5
20260506195723 58 337 1.0 5.0 0.00 0.00 0.02 44 1011.5
20260506195521 58 0 1.0 5.0 0.00 0.00 0.02 44 1011.6
20260506195117 58 337 1.0 4.0 0.00 0.00 0.02 43 1011.6
20260506194914 58 292 2.0 4.0 0.00 0.00 0.02 43 1011.5
20260506193338 59 270 3.0 6.0 0.00 0.00 0.02 43 1011.2
20260506193256 59 270 3.0 6.0 0.00 0.00 0.02 43 1011.2
20260506192649 59 303 4.0 7.0 0.00 0.00 0.02 42 1011.1
20260506192244 59 303 2.0 4.0 0.00 0.00 0.02 42 1011.2
20260506192042 59 315 3.0 5.0 0.00 0.00 0.02 43 1011.1
20260506191234 60 292 1.0 3.0 0.00 0.00 0.02 42 1011.2
20260506191030 60 315 1.0 2.0 0.00 0.00 0.02 42 1011.2
20260506190828 60 270 0.0 3.0 0.00 0.00 0.02 42 1011.1
20260506190729 60 315 1.0 3.0 0.00 0.00 0.02 42 1011.0
20260506190626 60 315 1.0 3.0 0.00 0.00 0.02 42 1011.0
20260506190222 60 292 1.0 2.0 0.00 0.00 0.02 41 1011.0
20260506190024 60 292 1.0 7.0 0.00 0.00 0.02 40 1011.0
20260506185817 60 292 3.0 7.0 0.00 0.00 0.02 40 1010.9
20260506185413 60 303 4.0 6.0 0.00 0.00 0.02 40 1011.0
20260506185251 60 270 1.0 6.0 0.00 0.00 0.02 41 1010.9
20260506185210 60 270 1.0 6.0 0.00 0.00 0.02 41 1010.9
20260506184841 61 292 4.0 6.0 0.00 0.00 0.02 41 1011.0
20260506184805 61 292 4.0 6.0 0.00 0.00 0.02 41 1011.0
20260506184200 61 315 4.0 5.0 0.00 0.00 0.02 42 1010.9
20260506183959 61 315 3.0 6.0 0.00 0.00 0.02 42 1010.9
20260506183840 61 292 4.0 6.0 0.00 0.00 0.02 42 1010.8
20260506183754 61 292 4.0 6.0 0.00 0.00 0.02 42 1010.8
20260506183553 61 270 1.0 3.0 0.00 0.00 0.02 42 1010.9
20260506183149 61 315 2.0 4.0 0.00 0.00 0.02 43 1010.8
20260506182339 61 315 1.0 3.0 0.00 0.00 0.02 42 1010.8
20260506181732 61 315 0.0 2.0 0.00 0.00 0.02 41 1010.7
20260506180922 61 270 1.0 2.0 0.00 0.00 0.02 42 1010.6
20260506180720 61 315 0.0 1.0 0.00 0.00 0.02 41 1010.5
20260506180518 61 270 0.0 4.0 0.00 0.00 0.02 40 1010.6
20260506180316 61 315 3.0 4.0 0.00 0.00 0.02 40 1010.5
20260506180114 61 303 0.0 5.0 0.00 0.00 0.02 41 1010.5
20260506175752 61 292 4.0 4.0 0.00 0.00 0.02 40 1010.4
20260506175709 61 292 4.0 4.0 0.00 0.00 0.02 40 1010.4
20260506175306 61 270 0.0 7.0 0.00 0.00 0.02 40 1010.5
20260506174051 61 270 6.0 9.0 0.00 0.00 0.02 41 1010.3
20260506173647 61 270 4.0 9.0 0.00 0.00 0.02 41 1010.3
20260506173242 61 270 3.0 3.0 0.00 0.00 0.02 41 1010.5
20260506172635 61 270 2.0 5.0 0.00 0.00 0.02 41 1010.2
20260506172233 61 270 1.0 10.0 0.00 0.00 0.02 41 1010.3
20260506172124 61 270 10.0 10.0 0.00 0.00 0.02 41 1010.3
20260506171714 61 315 1.0 8.0 0.00 0.00 0.02 41 1010.2
20260506171309 61 270 7.0 10.0 0.00 0.00 0.02 41 1010.1
20260506171110 61 270 3.0 10.0 0.00 0.00 0.02 41 1010.1
20260506170905 61 270 1.0 4.0 0.00 0.00 0.01 41 1010.1
20260506170500 61 292 5.0 6.0 0.00 0.00 0.01 41 1010.0
20260506164727 61 270 9.0 9.0 0.00 0.00 0.01 41 1009.8
20260506164524 61 270 3.0 15.0 0.00 0.00 0.01 41 1009.9
20260506164220 61 270 15.0 15.0 0.00 0.00 0.01 41 1009.8
20260506164017 61 270 7.0 9.0 0.00 0.00 0.01 42 1009.8
20260506163815 61 315 4.0 13.0 0.00 0.00 0.01 42 1009.7
20260506163613 62 315 3.0 13.0 0.00 0.00 0.01 42 1009.8
20260506163511 62 270 13.0 13.0 0.00 0.00 0.01 42 1009.9
20260506163318 62 326 3.0 7.0 0.00 0.00 0.01 43 1009.8
20260506163118 62 270 2.0 7.0 0.00 0.00 0.01 43 1009.8
20260506162914 62 292 4.0 4.0 0.00 0.00 0.01 43 1009.7
20260506162711 62 270 2.0 9.0 0.00 0.00 0.01 42 1009.7
20260506162307 62 236 1.0 5.0 0.00 0.00 0.01 42 1009.8
20260506162109 62 258 5.0 5.0 0.00 0.00 0.01 42 1009.6
20260506161903 62 270 2.0 3.0 0.00 0.00 0.01 42 1009.6
20260506161706 62 292 1.0 7.0 0.00 0.00 0.01 41 1009.6
20260506161458 62 270 3.0 7.0 0.00 0.00 0.01 41 1009.6
20260506161256 62 315 5.0 7.0 0.00 0.00 0.01 42 1009.5
20260506160738 63 315 3.0 7.0 0.00 0.00 0.01 42 1009.5
20260506160656 63 315 3.0 7.0 0.00 0.00 0.01 42 1009.5
20260506155638 63 326 9.0 12.0 0.00 0.00 0.01 42 1009.4
20260506154627 64 337 2.0 4.0 0.00 0.00 0.01 42 1009.3
20260506154222 64 315 3.0 4.0 0.00 0.00 0.01 41 1009.4
20260506154019 64 258 3.0 4.0 0.00 0.00 0.01 41 1009.2
20260506153615 65 337 2.0 8.0 0.00 0.00 0.01 41 1009.3
20260506153210 65 315 3.0 5.0 0.00 0.00 0.01 39 1009.3
20260506153011 65 303 4.0 5.0 0.00 0.00 0.01 39 1009.3
20260506152805 65 0 3.0 4.0 0.00 0.00 0.01 39 1009.2
20260506152603 65 0 3.0 4.0 0.00 0.00 0.01 39 1009.2
20260506152202 66 0 3.0 4.0 0.00 0.00 0.01 38 1009.1
20260506151832 66 326 2.0 5.0 0.00 0.00 0.01 38 1009.2
20260506151754 66 326 2.0 5.0 0.00 0.00 0.01 38 1009.2
20260506150544 68 315 2.0 7.0 0.00 0.00 0.01 35 1009.1
20260506150338 68 315 6.0 7.0 0.00 0.00 0.01 35 1009.1
20260506145735 69 315 4.0 5.0 0.00 0.00 0.01 33 1009.0
20260506145330 70 292 3.0 3.0 0.00 0.00 0.01 32 1009.1
20260506145130 70 315 3.0 3.0 0.00 0.00 0.01 32 1009.1
20260506144923 70 315 0.0 4.0 0.00 0.00 0.01 31 1009.1
20260506144801 70 315 2.0 4.0 0.00 0.00 0.01 29 1009.2
20260506144720 70 315 2.0 4.0 0.00 0.00 0.01 29 1009.2
20260506144518 70 270 1.0 3.0 0.00 0.00 0.00 28 1009.1
20260506143911 71 270 3.0 8.0 0.00 0.00 0.00 27 1009.1
20260506143709 72 270 8.0 8.0 0.00 0.00 0.00 27 1009.0
20260506143304 72 270 1.0 4.0 0.00 0.00 0.00 26 1009.1
20260506143108 72 270 3.0 4.0 0.00 0.00 0.00 26 1009.0
20260506142903 73 270 1.0 3.0 0.00 0.00 0.00 26 1009.0
20260506142657 73 270 2.0 6.0 0.00 0.00 0.00 25 1009.0
20260506142254 73 270 2.0 4.0 0.00 0.00 0.00 24 1009.0
20260506141450 74 270 3.0 6.0 0.00 0.00 0.00 22 1009.1
20260506141241 74 270 5.0 6.0 0.00 0.00 0.00 22 1009.1
20260506140837 75 270 2.0 8.0 0.00 0.00 0.00 22 1009.1
20260506140634 75 270 4.0 10.0 0.00 0.00 0.00 21 1009.0
20260506140230 75 270 7.0 9.0 0.00 0.00 0.00 20 1009.1
20260506140029 76 270 3.0 9.0 0.00 0.00 0.00 20 1009.1
20260506135421 76 270 6.0 10.0 0.00 0.00 0.00 20 1009.0
20260506135017 77 270 7.0 13.0 0.00 0.00 0.00 20 1009.0
20260506134815 78 270 9.0 13.0 0.00 0.00 0.00 20 1009.0
20260506134612 78 270 12.0 13.0 0.00 0.00 0.00 20 1009.1
20260506133844 78 270 7.0 12.0 0.00 0.00 0.00 20 1009.1
20260506133640 78 270 9.0 16.0 0.00 0.00 0.00 19 1009.1
20260506133442 78 270 14.0 16.0 0.00 0.00 0.00 20 1008.9
20260506133236 79 270 10.0 12.0 0.00 0.00 0.00 20 1009.1
20260506132832 78 270 4.0 10.0 0.00 0.00 0.00 21 1009.1
20260506132632 78 270 6.0 9.0 0.00 0.00 0.00 22 1009.0
20260506132225 77 270 8.0 10.0 0.00 0.00 0.00 22 1009.0
20260506132023 77 270 2.0 10.0 0.00 0.00 0.00 22 1008.9
20260506131822 77 292 4.0 7.0 0.00 0.00 0.00 22 1009.0
20260506131619 76 292 7.0 10.0 0.00 0.00 0.00 24 1008.9
20260506131416 76 270 6.0 10.0 0.00 0.00 0.00 24 1009.0
20260506131217 76 315 3.0 8.0 0.00 0.00 0.00 23 1009.0
20260506131012 75 270 5.0 8.0 0.00 0.00 0.00 23 1009.0
20260506130809 75 270 4.0 6.0 0.00 0.00 0.00 24 1009.1
20260506130606 74 270 4.0 7.0 0.00 0.00 0.00 25 1009.0
20260506130404 74 292 5.0 7.0 0.00 0.00 0.00 23 1009.0
20260506125758 74 270 3.0 7.0 0.00 0.00 0.00 24 1009.0
20260506125427 73 270 3.0 10.0 0.00 0.00 0.00 23 1009.2
20260506125355 73 270 3.0 10.0 0.00 0.00 0.00 23 1009.2
20260506124953 73 270 8.0 8.0 0.00 0.00 0.00 23 1009.1
20260506124749 73 270 6.0 9.0 0.00 0.00 0.00 22 1009.2
20260506124544 73 270 4.0 9.0 0.00 0.00 0.00 22 1009.2
20260506124343 73 270 8.0 14.0 0.00 0.00 0.00 22 1009.2
20260506124141 74 270 8.0 14.0 0.00 0.00 0.00 22 1009.1
20260506123941 74 270 14.0 14.0 0.00 0.00 0.00 23 1009.1
20260506123838 74 270 6.0 7.0 0.00 0.00 0.00 24 1009.2
20260506123231 73 270 6.0 9.0 0.00 0.00 0.00 23 1009.2
20260506122622 73 270 5.0 13.0 0.00 0.00 0.00 23 1009.3
20260506121653 73 270 7.0 8.0 0.00 0.00 0.00 23 1009.2
20260506121451 73 270 5.0 8.0 0.00 0.00 0.00 24 1009.3
20260506120642 74 270 4.0 11.0 0.00 0.00 0.00 22 1009.3
20260506120234 74 270 5.0 10.0 0.00 0.00 0.00 21 1009.2
20260506115832 75 270 10.0 11.0 0.00 0.00 0.00 22 1009.1
20260506115224 76 270 8.0 13.0 0.00 0.00 0.00 22 1009.1
20260506114859 76 292 2.0 7.0 0.00 0.00 0.00 22 1009.2
20260506114659 76 270 6.0 7.0 0.00 0.00 0.00 21 1009.3
20260506114455 77 270 4.0 8.0 0.00 0.00 0.00 22 1009.4
20260506113852 77 270 2.0 7.0 0.00 0.00 0.00 23 1009.3